User: anonymous   Login
Location: Unspecified
(0.0000°N, 0.0000°E)
Time: 10:02:37
(UTC+02:00)
Language:

Ariane H10 - Orbit

View from above orbital plane
View from above orbital plane
View from above satellite
View from above satellite

Ground track
Ground track

The orbit data is extracted from the following two-line orbital elements,

1 19122U 88040B   16144.03736868  .00000140  00000-0  14130-2 0  9998
2 19122   7.5628 332.1841 7130321 184.9429 159.5064  2.33209872187823
Epoch (UTC): 23 May 2016 00:53:48
Eccentricity: 0.7130321
inclination: 7.5628°
perigee height: 515 km
apogee height: 34768 km
right ascension of ascending node: 332.1841°
argument of perigee: 184.9429°
revolutions per day: 2.33209872
mean anomaly at epoch: 159.5064°
orbit number at epoch: 18782

The dashed part of the orbit path shows where the satellite is in the earth's shadow,  

DLR